Location: The Saddle
(36.8333°N, 80.3417°W)
Time: 09:23:12
(UTC-04:00)

Vanguard 2 Rocket - Pass Details

Date: 03 February 2023
Orbit: 555 x 3316 km, 32.9° (Epoch: 25 March)

Event Time Altitude Azimuth Distance (km) Brightness Sun altitude
Rises 11:46:16 0° 255° (WSW) 3,208 9.7 35.5°
Reaches altitude 10° 11:49:01 10° 250° (WSW) 2,064 8.9 35.6°
Maximum altitude 11:53:16 47° 175° (S) 746 8.7 35.8°
Drops below altitude 10° 11:57:04 10° 100° (E) 1,836 8.8 36.0°
Sets 11:59:22 0° 95° (E) 2,806 9.6 36.0°
